IBE6123 SPZO-SKBO

Flight info

Callsign IBE6123
Flight time 2h 43m
Altitude 40000
Route CEMIL DCT TOMIX UL300 IQT/N0480F410 UL300 POVSO/N0477F400 DCT GIR GIR5E
Aircraft A359/H-SDE2E3GHIJ3J4J5LM1ORWXY/LB1D1

Departure

Time 2026-05-08 17:21
Airport Alejandro Velasco Astete International Airport (SPZO)

Arrival

Time 2026-05-08 20:04
Airport El Dorado International Airport (SKBO)
Time Latitude Longitude Altitude Speed Heading
2026-05-08 16:51 -13.53721 -71.94307 10823 ft 0 kts 258°
2026-05-08 17:12 -13.53719 -71.94298 10821 ft 3 kts 258°
2026-05-08 17:12 -13.53720 -71.94277 10823 ft 4 kts 324°
2026-05-08 17:12 -13.53744 -71.94269 10823 ft 4 kts 358°
2026-05-08 17:13 -13.53758 -71.94269 10823 ft 1 kts
2026-05-08 17:13 -13.53760 -71.94269 10823 ft 0 kts
2026-05-08 17:16 -13.53751 -71.94269 10823 ft 4 kts
2026-05-08 17:16 -13.53709 -71.94258 10823 ft 9 kts 33°
2026-05-08 17:16 -13.53675 -71.94189 10820 ft 14 kts 69°
2026-05-08 17:16 -13.53627 -71.94072 10815 ft 20 kts 65°
2026-05-08 17:17 -13.53574 -71.93935 10810 ft 22 kts 84°
2026-05-08 17:17 -13.53584 -71.93775 10810 ft 23 kts 96°
2026-05-08 17:17 -13.53604 -71.93599 10799 ft 27 kts 96°
2026-05-08 17:17 -13.53622 -71.93391 10777 ft 32 kts 96°
2026-05-08 17:18 -13.53646 -71.93158 10763 ft 35 kts 96°
2026-05-08 17:18 -13.53672 -71.92905 10752 ft 37 kts 96°
2026-05-08 17:18 -13.53696 -71.92671 10737 ft 26 kts 96°
2026-05-08 17:18 -13.53714 -71.92503 10726 ft 25 kts 95°
2026-05-08 17:19 -13.53736 -71.92362 10716 ft 13 kts 110°
2026-05-08 17:19 -13.53732 -71.92304 10712 ft 2 kts 24°
2026-05-08 17:19 -13.53723 -71.92311 10712 ft 2 kts 321°
2026-05-08 17:19 -13.53724 -71.92320 10713 ft 1 kts 269°
2026-05-08 17:20 -13.53728 -71.92338 10714 ft 5 kts 265°
2026-05-08 17:20 -13.53726 -71.92353 10715 ft 1 kts 274°
2026-05-08 17:20 -13.53718 -71.92458 10723 ft 35 kts 275°
2026-05-08 17:20 -13.53678 -71.92848 10748 ft 75 kts 276°
2026-05-08 17:21 -13.53611 -71.93508 10786 ft 110 kts 276°
2026-05-08 17:21 -13.53521 -71.94396 10821 ft 141 kts 276°
2026-05-08 17:21 -13.53409 -71.95503 10893 ft 171 kts 276°
2026-05-08 17:21 -13.53325 -71.96687 11479 ft 163 kts 275°
2026-05-08 17:22 -13.53114 -71.97864 11829 ft 172 kts 297°
2026-05-08 17:22 -13.52276 -71.98751 12149 ft 184 kts 339°
2026-05-08 17:22 -13.50991 -71.98718 12492 ft 196 kts 27°
2026-05-08 17:22 -13.49993 -71.97762 12967 ft 198 kts 47°
2026-05-08 17:23 -13.49038 -71.96742 13260 ft 199 kts 40°
2026-05-08 17:23 -13.47916 -71.95877 13466 ft 205 kts 32°
2026-05-08 17:23 -13.46693 -71.95127 13696 ft 209 kts 28°
2026-05-08 17:23 -13.45409 -71.94420 14011 ft 209 kts 27°
2026-05-08 17:24 -13.44099 -71.93715 14201 ft 217 kts 27°
2026-05-08 17:24 -13.42737 -71.92969 14372 ft 227 kts 28°
2026-05-08 17:24 -13.41323 -71.92171 14541 ft 237 kts 28°
2026-05-08 17:24 -13.39850 -71.91318 14709 ft 247 kts 29°
2026-05-08 17:25 -13.38331 -71.90420 14920 ft 257 kts 29°
2026-05-08 17:25 -13.36759 -71.89488 15111 ft 266 kts 30°
2026-05-08 17:25 -13.35128 -71.88515 15265 ft 277 kts 30°
2026-05-08 17:25 -13.33437 -71.87507 15368 ft 291 kts 30°
2026-05-08 17:26 -13.31645 -71.86441 15550 ft 303 kts 30°
2026-05-08 17:26 -13.29785 -71.85333 15760 ft 314 kts 30°
2026-05-08 17:26 -13.27859 -71.84191 15987 ft 323 kts 30°
2026-05-08 17:26 -13.25888 -71.83027 16298 ft 328 kts 30°
2026-05-08 17:27 -13.23902 -71.81848 16649 ft 332 kts 30°
2026-05-08 17:27 -13.21897 -71.80659 17058 ft 334 kts 30°
2026-05-08 17:27 -13.19878 -71.79461 17488 ft 336 kts 30°
2026-05-08 17:27 -13.17854 -71.78260 17897 ft 337 kts 30°
2026-05-08 17:28 -13.15817 -71.77054 18316 ft 338 kts 30°
2026-05-08 17:28 -13.13796 -71.75860 18702 ft 340 kts 30°
2026-05-08 17:28 -13.11736 -71.74641 19061 ft 343 kts 30°
2026-05-08 17:28 -13.09656 -71.73409 19440 ft 345 kts 30°
2026-05-08 17:29 -13.07569 -71.72174 19852 ft 347 kts 30°
2026-05-08 17:29 -13.05475 -71.70934 20205 ft 349 kts 30°
2026-05-08 17:29 -13.03355 -71.69679 20570 ft 352 kts 30°
2026-05-08 17:29 -13.01208 -71.68409 20744 ft 360 kts 30°
2026-05-08 17:30 -12.99011 -71.67110 20897 ft 368 kts 30°
2026-05-08 17:30 -12.96794 -71.65799 21054 ft 376 kts 30°
2026-05-08 17:30 -12.94473 -71.64427 21205 ft 384 kts 30°
2026-05-08 17:30 -12.92160 -71.63061 21354 ft 391 kts 30°
2026-05-08 17:31 -12.89778 -71.61653 21500 ft 398 kts 30°
2026-05-08 17:31 -12.87354 -71.60221 21642 ft 405 kts 30°
2026-05-08 17:31 -12.84902 -71.58772 21810 ft 410 kts 30°
2026-05-08 17:31 -12.82420 -71.57306 22077 ft 412 kts 30°
2026-05-08 17:32 -12.79946 -71.55848 22364 ft 414 kts 30°
2026-05-08 17:32 -12.77337 -71.54589 22607 ft 416 kts 19°
2026-05-08 17:32 -12.74530 -71.53854 22857 ft 418 kts
2026-05-08 17:32 -12.71625 -71.53780 23128 ft 418 kts 354°
2026-05-08 17:33 -12.68731 -71.54144 23396 ft 420 kts 350°
2026-05-08 17:33 -12.65850 -71.54678 23660 ft 421 kts 348°
2026-05-08 17:33 -12.62971 -71.55294 23915 ft 423 kts 347°
2026-05-08 17:33 -12.60084 -71.55938 24172 ft 425 kts 347°
2026-05-08 17:34 -12.57224 -71.56572 24431 ft 426 kts 347°
2026-05-08 17:34 -12.54314 -71.57202 24696 ft 427 kts 347°
2026-05-08 17:34 -12.51394 -71.57819 24948 ft 429 kts 347°
2026-05-08 17:34 -12.48465 -71.58428 25192 ft 430 kts 348°
2026-05-08 17:35 -12.45530 -71.59031 25437 ft 431 kts 348°
2026-05-08 17:35 -12.42575 -71.59636 25682 ft 433 kts 348°
2026-05-08 17:35 -12.39621 -71.60245 25931 ft 434 kts 348°
2026-05-08 17:35 -12.36654 -71.60854 26164 ft 435 kts 348°
2026-05-08 17:36 -12.33712 -71.61457 26399 ft 437 kts 348°
2026-05-08 17:36 -12.30725 -71.62069 26641 ft 438 kts 348°
2026-05-08 17:36 -12.27729 -71.62684 26876 ft 440 kts 348°
2026-05-08 17:36 -12.24723 -71.63300 27101 ft 441 kts 347°
2026-05-08 17:37 -12.21702 -71.63920 27350 ft 442 kts 347°
2026-05-08 17:37 -12.18671 -71.64543 27596 ft 444 kts 347°
2026-05-08 17:37 -12.15668 -71.65159 27832 ft 445 kts 347°
2026-05-08 17:37 -12.12619 -71.65786 28081 ft 447 kts 347°
2026-05-08 17:38 -12.09564 -71.66413 28332 ft 448 kts 347°
2026-05-08 17:38 -12.07496 -71.66838 28498 ft 449 kts 347°
2026-05-08 17:38 -12.04457 -71.67461 28748 ft 451 kts 347°
2026-05-08 17:38 -12.01375 -71.68093 29001 ft 452 kts 347°
2026-05-08 17:39 -11.98282 -71.68728 29247 ft 454 kts 347°
2026-05-08 17:39 -11.95168 -71.69366 29498 ft 456 kts 347°
2026-05-08 17:39 -11.92052 -71.70005 29752 ft 457 kts 347°
2026-05-08 17:39 -11.88924 -71.70645 30018 ft 459 kts 347°
2026-05-08 17:40 -11.85784 -71.71287 30242 ft 461 kts 347°
2026-05-08 17:40 -11.82635 -71.71932 30509 ft 462 kts 347°
2026-05-08 17:40 -11.79515 -71.72572 30768 ft 464 kts 347°
2026-05-08 17:40 -11.76341 -71.73222 31031 ft 466 kts 346°
2026-05-08 17:41 -11.73152 -71.73876 31286 ft 468 kts 346°
2026-05-08 17:41 -11.69962 -71.74529 31550 ft 469 kts 346°
2026-05-08 17:41 -11.66751 -71.75186 31803 ft 471 kts 346°
2026-05-08 17:41 -11.63529 -71.75845 32041 ft 473 kts 346°
2026-05-08 17:42 -11.60296 -71.76506 32266 ft 475 kts 346°
2026-05-08 17:42 -11.57049 -71.77170 32506 ft 476 kts 346°
2026-05-08 17:42 -11.53791 -71.77836 32743 ft 478 kts 345°
2026-05-08 17:42 -11.50512 -71.78507 32968 ft 480 kts 345°
2026-05-08 17:43 -11.47229 -71.79177 33189 ft 482 kts 345°
2026-05-08 17:43 -11.43936 -71.79850 33404 ft 483 kts 345°
2026-05-08 17:43 -11.40631 -71.80525 33610 ft 485 kts 345°
2026-05-08 17:43 -11.37316 -71.81202 33803 ft 487 kts 345°
2026-05-08 17:44 -11.34020 -71.81875 34001 ft 489 kts 345°
2026-05-08 17:44 -11.30674 -71.82558 34214 ft 490 kts 345°
2026-05-08 17:44 -11.27320 -71.83242 34402 ft 492 kts 345°
2026-05-08 17:44 -11.23953 -71.83929 34600 ft 494 kts 344°
2026-05-08 17:45 -11.20574 -71.84618 34790 ft 495 kts 344°
2026-05-08 17:45 -11.17187 -71.85308 34999 ft 497 kts 344°
2026-05-08 17:45 -11.13789 -71.86000 35211 ft 498 kts 344°
2026-05-08 17:45 -11.10387 -71.86692 35488 ft 497 kts 344°
2026-05-08 17:46 -11.07038 -71.87373 35786 ft 496 kts 344°
2026-05-08 17:46 -11.03646 -71.88064 36054 ft 495 kts 344°
2026-05-08 17:46 -11.00268 -71.88751 36326 ft 495 kts 344°
2026-05-08 17:46 -10.96882 -71.89440 36598 ft 494 kts 343°
2026-05-08 17:47 -10.93508 -71.90126 36845 ft 494 kts 343°
2026-05-08 17:47 -10.90135 -71.90813 37082 ft 494 kts 343°
2026-05-08 17:47 -10.86764 -71.91499 37337 ft 493 kts 343°
2026-05-08 17:47 -10.84528 -71.91954 37503 ft 493 kts 343°
2026-05-08 17:48 -10.80072 -71.92859 37867 ft 491 kts 343°
2026-05-08 17:48 -10.76725 -71.93539 38115 ft 490 kts 343°
2026-05-08 17:48 -10.73373 -71.94220 38360 ft 490 kts 343°
2026-05-08 17:48 -10.70031 -71.94899 38610 ft 488 kts 343°
2026-05-08 17:49 -10.66704 -71.95575 38835 ft 488 kts 342°
2026-05-08 17:49 -10.63375 -71.96251 39073 ft 487 kts 342°
2026-05-08 17:49 -10.60057 -71.96925 39294 ft 486 kts 342°
2026-05-08 17:49 -10.56743 -71.97598 39513 ft 485 kts 342°
2026-05-08 17:50 -10.53476 -71.98260 39726 ft 483 kts 342°
2026-05-08 17:50 -10.50184 -71.98929 39942 ft 482 kts 342°
2026-05-08 17:50 -10.46898 -71.99595 40114 ft 481 kts 342°
2026-05-08 17:50 -10.43612 -72.00263 40146 ft 481 kts 342°
2026-05-08 17:51 -10.37061 -72.01592 40146 ft 479 kts 342°
2026-05-08 17:51 -10.30526 -72.02916 40138 ft 478 kts 342°
2026-05-08 17:52 -10.24050 -72.04228 40135 ft 477 kts 342°
2026-05-08 17:53 -10.14295 -72.06204 40121 ft 476 kts 342°
2026-05-08 17:53 -10.07798 -72.07520 40113 ft 475 kts 342°
2026-05-08 17:54 -10.01302 -72.08835 40105 ft 475 kts 342°
2026-05-08 17:54 -9.94847 -72.10133 40097 ft 475 kts 342°
2026-05-08 17:55 -9.88347 -72.11416 40088 ft 476 kts 342°
2026-05-08 17:55 -9.81844 -72.12698 40078 ft 476 kts 342°
2026-05-08 17:56 -9.75352 -72.13982 40068 ft 476 kts 342°
2026-05-08 17:56 -9.68841 -72.15271 40066 ft 476 kts 342°
2026-05-08 17:57 -9.62381 -72.16550 40049 ft 475 kts 342°
2026-05-08 17:57 -9.55873 -72.17838 40045 ft 476 kts 342°
2026-05-08 17:58 -9.49362 -72.19123 40037 ft 477 kts 343°
2026-05-08 17:58 -9.42836 -72.20360 40028 ft 477 kts 343°
2026-05-08 17:59 -9.36339 -72.21578 40017 ft 477 kts 343°
2026-05-08 17:59 -9.29811 -72.22808 40010 ft 477 kts 343°
2026-05-08 18:00 -9.23285 -72.24042 40003 ft 477 kts 343°
2026-05-08 18:00 -9.13493 -72.25897 39988 ft 477 kts 343°
2026-05-08 18:01 -9.06957 -72.27134 39977 ft 477 kts 343°
2026-05-08 18:01 -9.00433 -72.28367 39966 ft 478 kts 343°
2026-05-08 18:02 -8.94993 -72.29402 39965 ft 478 kts 343°
2026-05-08 18:02 -8.87421 -72.30946 39954 ft 477 kts 342°
2026-05-08 18:03 -8.80924 -72.32297 39954 ft 476 kts 342°
2026-05-08 18:03 -8.74416 -72.33639 39950 ft 476 kts 343°
2026-05-08 18:04 -8.67925 -72.34972 39953 ft 475 kts 343°
2026-05-08 18:04 -8.61450 -72.36297 39954 ft 474 kts 343°
2026-05-08 18:05 -8.54981 -72.37621 39945 ft 473 kts 343°
2026-05-08 18:05 -8.48548 -72.38937 39940 ft 473 kts 343°
2026-05-08 18:06 -8.42093 -72.40260 39936 ft 473 kts 343°
2026-05-08 18:06 -8.35670 -72.41575 39935 ft 473 kts 343°
2026-05-08 18:07 -8.29217 -72.42891 39934 ft 473 kts 343°
2026-05-08 18:07 -8.22756 -72.44208 39934 ft 473 kts 343°
2026-05-08 18:08 -8.16305 -72.45528 39933 ft 472 kts 343°
2026-05-08 18:08 -8.09904 -72.46838 39934 ft 472 kts 343°
2026-05-08 18:09 -8.03467 -72.48156 39934 ft 471 kts 343°
2026-05-08 18:09 -7.97031 -72.49471 39934 ft 471 kts 343°
2026-05-08 18:10 -7.90603 -72.50780 39934 ft 470 kts 343°
2026-05-08 18:10 -7.84167 -72.52092 39935 ft 470 kts 343°
2026-05-08 18:11 -7.77757 -72.53404 39935 ft 470 kts 343°
2026-05-08 18:11 -7.71326 -72.54715 39932 ft 471 kts 343°
2026-05-08 18:12 -7.64897 -72.56010 39936 ft 471 kts 343°
2026-05-08 18:12 -7.58464 -72.57281 39934 ft 471 kts 343°
2026-05-08 18:13 -7.52057 -72.58549 39935 ft 471 kts 343°
2026-05-08 18:13 -7.45610 -72.59827 39934 ft 471 kts 344°
2026-05-08 18:14 -7.39179 -72.61105 39934 ft 470 kts 344°
2026-05-08 18:14 -7.32744 -72.62386 39934 ft 470 kts 344°
2026-05-08 18:15 -7.26365 -72.63650 39934 ft 471 kts 344°
2026-05-08 18:15 -7.19926 -72.64926 39934 ft 471 kts 344°
2026-05-08 18:16 -7.13505 -72.66200 39935 ft 470 kts 344°
2026-05-08 18:16 -7.07063 -72.67479 39936 ft 471 kts 344°
2026-05-08 18:17 -7.00628 -72.68756 39934 ft 470 kts 344°
2026-05-08 18:17 -6.94240 -72.70021 39935 ft 470 kts 344°
2026-05-08 18:18 -6.87796 -72.71296 39934 ft 470 kts 344°
2026-05-08 18:18 -6.81381 -72.72570 39929 ft 470 kts 344°
2026-05-08 18:19 -6.75009 -72.73832 39925 ft 469 kts 344°
2026-05-08 18:19 -6.68604 -72.75103 39922 ft 469 kts 345°
2026-05-08 18:20 -6.62198 -72.76369 39924 ft 469 kts 345°
2026-05-08 18:20 -6.55789 -72.77641 39926 ft 469 kts 345°
2026-05-08 18:21 -6.49371 -72.78908 39926 ft 469 kts 345°
2026-05-08 18:21 -6.42964 -72.80176 39917 ft 469 kts 345°
2026-05-08 18:22 -6.36593 -72.81434 39916 ft 468 kts 345°
2026-05-08 18:22 -6.30193 -72.82699 39913 ft 469 kts 345°
2026-05-08 18:23 -6.23779 -72.83967 39914 ft 469 kts 345°
2026-05-08 18:23 -6.17363 -72.85236 39916 ft 469 kts 345°
2026-05-08 18:24 -6.12035 -72.86291 39920 ft 469 kts 345°
2026-05-08 18:24 -6.04579 -72.87761 39908 ft 469 kts 345°
2026-05-08 18:25 -5.99207 -72.88822 39906 ft 469 kts 345°
2026-05-08 18:25 -5.92834 -72.90084 39904 ft 469 kts 345°
2026-05-08 18:26 -5.86428 -72.91347 39907 ft 469 kts 345°
2026-05-08 18:26 -5.80021 -72.92614 39906 ft 468 kts 346°
2026-05-08 18:27 -5.74709 -72.93659 39906 ft 467 kts 345°
2026-05-08 18:27 -5.67247 -72.95134 39901 ft 467 kts 346°
2026-05-08 18:28 -5.60893 -72.96393 39897 ft 468 kts 346°
2026-05-08 18:28 -5.54494 -72.97639 39897 ft 468 kts 346°
2026-05-08 18:29 -5.48105 -72.98879 39898 ft 468 kts 346°
2026-05-08 18:29 -5.41711 -73.00126 39897 ft 468 kts 346°
2026-05-08 18:30 -5.35303 -73.01384 39896 ft 469 kts 346°
2026-05-08 18:30 -5.28892 -73.02636 39897 ft 468 kts 346°
2026-05-08 18:31 -5.22541 -73.03872 39895 ft 467 kts 346°
2026-05-08 18:31 -5.16143 -73.05121 39891 ft 468 kts 346°
2026-05-08 18:32 -5.09750 -73.06367 39886 ft 467 kts 346°
2026-05-08 18:32 -5.03369 -73.07604 39888 ft 466 kts 346°
2026-05-08 18:33 -4.97024 -73.08846 39888 ft 467 kts 346°
2026-05-08 18:33 -4.90647 -73.10096 39887 ft 467 kts 346°
2026-05-08 18:34 -4.84272 -73.11338 39887 ft 466 kts 346°
2026-05-08 18:34 -4.77899 -73.12580 39888 ft 466 kts 346°
2026-05-08 18:35 -4.71532 -73.13818 39887 ft 465 kts 346°
2026-05-08 18:35 -4.65203 -73.15049 39888 ft 465 kts 346°
2026-05-08 18:36 -4.58840 -73.16287 39888 ft 466 kts 346°
2026-05-08 18:36 -4.52474 -73.17528 39888 ft 466 kts 346°
2026-05-08 18:37 -4.46109 -73.18768 39887 ft 466 kts 346°
2026-05-08 18:37 -4.39744 -73.20007 39887 ft 466 kts 346°
2026-05-08 18:38 -4.33371 -73.21248 39886 ft 466 kts 346°
2026-05-08 18:38 -4.26997 -73.22489 39888 ft 466 kts 347°
2026-05-08 18:39 -4.20628 -73.23727 39888 ft 466 kts 347°
2026-05-08 18:39 -4.14291 -73.24959 39888 ft 466 kts 347°
2026-05-08 18:40 -4.07918 -73.26199 39887 ft 466 kts 347°
2026-05-08 18:40 -4.01557 -73.27437 39888 ft 466 kts 347°
2026-05-08 18:41 -3.95189 -73.28677 39887 ft 466 kts 347°
2026-05-08 18:41 -3.88822 -73.29921 39888 ft 465 kts 347°
2026-05-08 18:42 -3.82493 -73.31149 39888 ft 466 kts 347°
2026-05-08 18:42 -3.76119 -73.32324 39888 ft 466 kts 349°
2026-05-08 18:43 -3.69656 -73.33057 39887 ft 467 kts 352°
2026-05-08 18:43 -3.63194 -73.33690 39887 ft 466 kts 352°
2026-05-08 18:44 -3.56778 -73.34383 39888 ft 466 kts 351°
2026-05-08 18:44 -3.50329 -73.35130 39888 ft 465 kts 351°
2026-05-08 18:45 -3.43884 -73.35887 39887 ft 466 kts 351°
2026-05-08 18:45 -3.37449 -73.36637 39888 ft 465 kts 351°
2026-05-08 18:46 -3.31007 -73.37383 39888 ft 466 kts 351°
2026-05-08 18:46 -3.24560 -73.38132 39888 ft 466 kts 351°
2026-05-08 18:47 -3.18127 -73.38883 39888 ft 466 kts 351°
2026-05-08 18:47 -3.11726 -73.39629 39887 ft 465 kts 351°
2026-05-08 18:48 -3.05278 -73.40379 39888 ft 465 kts 351°
2026-05-08 18:48 -2.98849 -73.41125 39887 ft 465 kts 351°
2026-05-08 18:49 -2.92454 -73.41865 39888 ft 464 kts 351°
2026-05-08 18:49 -2.86030 -73.42608 39887 ft 464 kts 351°
2026-05-08 18:50 -2.79613 -73.43352 39888 ft 464 kts 351°
2026-05-08 18:50 -2.73202 -73.44095 39887 ft 463 kts 351°
2026-05-08 18:51 -2.66821 -73.44839 39888 ft 463 kts 351°
2026-05-08 18:51 -2.60408 -73.45586 39887 ft 464 kts 351°
2026-05-08 18:52 -2.53990 -73.46332 39888 ft 463 kts 351°
2026-05-08 18:52 -2.47585 -73.47074 39888 ft 463 kts 351°
2026-05-08 18:53 -2.41184 -73.47817 39887 ft 463 kts 351°
2026-05-08 18:53 -2.34775 -73.48561 39887 ft 463 kts 352°
2026-05-08 18:54 -2.28359 -73.49301 39888 ft 463 kts 352°
2026-05-08 18:54 -2.21960 -73.50040 39888 ft 463 kts 352°
2026-05-08 18:55 -2.12385 -73.51154 39887 ft 463 kts 352°
2026-05-08 18:56 -2.05972 -73.51903 39888 ft 463 kts 352°
2026-05-08 18:56 -1.99561 -73.52646 39897 ft 464 kts 352°
2026-05-08 18:57 -1.93160 -73.53390 39904 ft 463 kts 352°
2026-05-08 18:57 -1.86751 -73.54136 39906 ft 463 kts 352°
2026-05-08 18:58 -1.80349 -73.54875 39906 ft 463 kts 352°
2026-05-08 18:58 -1.73946 -73.55614 39906 ft 462 kts 352°
2026-05-08 18:59 -1.67594 -73.56353 39909 ft 462 kts 352°
2026-05-08 18:59 -1.61192 -73.57095 39913 ft 463 kts 352°
2026-05-08 19:00 -1.55866 -73.57714 39915 ft 463 kts 352°
2026-05-08 19:00 -1.48376 -73.58583 39919 ft 463 kts 352°
2026-05-08 19:01 -1.41968 -73.59324 39914 ft 464 kts 352°
2026-05-08 19:01 -1.35590 -73.60066 39923 ft 463 kts 352°
2026-05-08 19:02 -1.29159 -73.60807 39923 ft 463 kts 352°
2026-05-08 19:02 -1.22751 -73.61547 39925 ft 464 kts 352°
2026-05-08 19:03 -1.16384 -73.62287 39925 ft 462 kts 352°
2026-05-08 19:03 -1.09984 -73.63033 39926 ft 464 kts 352°
2026-05-08 19:04 -1.03561 -73.63781 39922 ft 464 kts 352°
2026-05-08 19:04 -0.97126 -73.64525 39914 ft 464 kts 352°
2026-05-08 19:05 -0.90701 -73.65266 39917 ft 465 kts 352°
2026-05-08 19:05 -0.84272 -73.66010 39914 ft 465 kts 352°
2026-05-08 19:06 -0.77892 -73.66750 39920 ft 464 kts 352°
2026-05-08 19:06 -0.71465 -73.67495 39919 ft 465 kts 352°
2026-05-08 19:07 -0.65030 -73.68241 39914 ft 465 kts 352°
2026-05-08 19:07 -0.58599 -73.68987 39916 ft 465 kts 352°
2026-05-08 19:08 -0.52158 -73.69734 39917 ft 466 kts 352°
2026-05-08 19:08 -0.45724 -73.70479 39914 ft 465 kts 352°
2026-05-08 19:09 -0.39289 -73.71224 39910 ft 466 kts 352°
2026-05-08 19:09 -0.32879 -73.71967 39902 ft 466 kts 352°
2026-05-08 19:10 -0.26427 -73.72715 39897 ft 466 kts 352°
2026-05-08 19:10 -0.19976 -73.73463 39897 ft 466 kts 352°
2026-05-08 19:11 -0.13536 -73.74209 39897 ft 466 kts 352°
2026-05-08 19:11 -0.07088 -73.74956 39891 ft 466 kts 352°
2026-05-08 19:12 -0.00681 -73.75699 39881 ft 466 kts 352°
2026-05-08 19:12 0.05763 -73.76446 39873 ft 466 kts 352°
2026-05-08 19:13 0.11132 -73.77068 39870 ft 466 kts 352°
2026-05-08 19:13 0.17586 -73.77816 39870 ft 466 kts 352°
2026-05-08 19:14 0.24030 -73.78563 39870 ft 466 kts 352°
2026-05-08 19:14 0.30475 -73.79310 39870 ft 466 kts 352°
2026-05-08 19:15 0.36880 -73.80052 39869 ft 466 kts 352°
2026-05-08 19:15 0.43329 -73.80799 39869 ft 466 kts 352°
2026-05-08 19:16 0.49771 -73.81546 39870 ft 466 kts 352°
2026-05-08 19:16 0.56212 -73.82293 39867 ft 466 kts 352°
2026-05-08 19:17 0.62652 -73.83040 39861 ft 466 kts 352°
2026-05-08 19:17 0.69063 -73.83783 39859 ft 466 kts 352°
2026-05-08 19:18 0.75516 -73.84530 39865 ft 466 kts 352°
2026-05-08 19:18 0.81967 -73.85278 39869 ft 466 kts 352°
2026-05-08 19:19 0.88414 -73.86025 39869 ft 466 kts 352°
2026-05-08 19:19 0.94859 -73.86772 39869 ft 466 kts 352°
2026-05-08 19:20 1.01269 -73.87516 39869 ft 466 kts 352°
2026-05-08 19:20 1.07711 -73.88262 39869 ft 466 kts 352°
2026-05-08 19:21 1.14159 -73.89010 39870 ft 466 kts 352°
2026-05-08 19:21 1.20581 -73.89754 39870 ft 466 kts 352°
2026-05-08 19:22 1.27019 -73.90501 39870 ft 465 kts 352°
2026-05-08 19:22 1.33462 -73.91248 39869 ft 465 kts 352°
2026-05-08 19:23 1.39889 -73.91993 39869 ft 465 kts 352°
2026-05-08 19:23 1.46276 -73.92733 39869 ft 465 kts 352°
2026-05-08 19:24 1.52718 -73.93481 39870 ft 465 kts 352°
2026-05-08 19:24 1.59144 -73.94226 39870 ft 465 kts 352°
2026-05-08 19:25 1.65564 -73.94971 39870 ft 465 kts 352°
2026-05-08 19:25 1.71950 -73.95711 39870 ft 464 kts 352°
2026-05-08 19:26 1.78372 -73.96456 39869 ft 464 kts 352°
2026-05-08 19:26 1.84792 -73.97201 39870 ft 464 kts 352°
2026-05-08 19:27 1.91214 -73.97946 39868 ft 464 kts 352°
2026-05-08 19:27 1.97646 -73.98692 39868 ft 464 kts 352°
2026-05-08 19:28 2.04066 -73.99437 39877 ft 464 kts 352°
2026-05-08 19:28 2.10492 -74.00182 39878 ft 464 kts 352°
2026-05-08 19:29 2.16887 -74.00924 39879 ft 464 kts 352°
2026-05-08 19:29 2.23310 -74.01670 39878 ft 464 kts 352°
2026-05-08 19:30 2.29737 -74.02417 39878 ft 464 kts 352°
2026-05-08 19:30 2.36147 -74.03160 39878 ft 463 kts 352°
2026-05-08 19:31 2.42528 -74.03901 39878 ft 463 kts 352°
2026-05-08 19:31 2.48913 -74.04643 39879 ft 463 kts 352°
2026-05-08 19:32 2.55321 -74.05387 39879 ft 463 kts 352°
2026-05-08 19:32 2.61725 -74.06130 39879 ft 463 kts 352°
2026-05-08 19:33 2.68132 -74.06875 39886 ft 463 kts 352°
2026-05-08 19:33 2.74549 -74.07621 39887 ft 464 kts 352°
2026-05-08 19:34 2.80964 -74.08365 39894 ft 464 kts 352°
2026-05-08 19:34 2.87393 -74.09112 39898 ft 465 kts 352°
2026-05-08 19:35 2.93774 -74.09853 39897 ft 465 kts 352°
2026-05-08 19:35 3.00195 -74.10600 39895 ft 465 kts 352°
2026-05-08 19:36 3.06614 -74.11346 39888 ft 464 kts 352°
2026-05-08 19:36 3.13035 -74.12092 39887 ft 465 kts 352°
2026-05-08 19:37 3.19474 -74.12841 39888 ft 464 kts 352°
2026-05-08 19:37 3.25864 -74.13583 39888 ft 464 kts 352°
2026-05-08 19:38 3.32295 -74.14332 39888 ft 464 kts 352°
2026-05-08 19:38 3.38726 -74.15079 39887 ft 464 kts 352°
2026-05-08 19:39 3.45107 -74.15821 39888 ft 464 kts 352°
2026-05-08 19:39 3.51529 -74.16568 39888 ft 464 kts 352°
2026-05-08 19:40 3.57948 -74.17315 39888 ft 464 kts 352°
2026-05-08 19:40 3.64376 -74.18063 39888 ft 465 kts 352°
2026-05-08 19:41 3.70796 -74.18810 39889 ft 465 kts 352°
2026-05-08 19:41 3.77224 -74.19558 39888 ft 465 kts 352°
2026-05-08 19:42 3.83616 -74.20301 39887 ft 465 kts 352°
2026-05-08 19:42 3.89920 -74.21508 39483 ft 456 kts 339°
2026-05-08 19:42 3.92814 -74.22830 38526 ft 461 kts 328°
2026-05-08 19:43 3.95411 -74.24756 37459 ft 467 kts 315°
2026-05-08 19:43 3.97556 -74.27224 36407 ft 473 kts 303°
2026-05-08 19:43 3.99133 -74.30125 35453 ft 477 kts 290°
2026-05-08 19:43 4.00045 -74.33304 34787 ft 472 kts 278°
2026-05-08 19:44 4.00452 -74.36547 34254 ft 467 kts 278°
2026-05-08 19:44 4.01225 -74.39694 33752 ft 464 kts 287°
2026-05-08 19:44 4.02278 -74.42704 33258 ft 461 kts 288°
2026-05-08 19:44 4.03389 -74.45698 32755 ft 457 kts 288°
2026-05-08 19:45 4.04512 -74.48654 32258 ft 453 kts 288°
2026-05-08 19:45 4.05643 -74.51596 31777 ft 449 kts 288°
2026-05-08 19:45 4.06766 -74.54501 31289 ft 445 kts 288°
2026-05-08 19:45 4.07884 -74.57385 30808 ft 441 kts 288°
2026-05-08 19:46 4.08993 -74.60241 30317 ft 438 kts 288°
2026-05-08 19:46 4.10091 -74.63065 29826 ft 434 kts 288°
2026-05-08 19:46 4.12268 -74.68661 28867 ft 427 kts 288°
2026-05-08 19:47 4.13346 -74.71432 28389 ft 424 kts 289°
2026-05-08 19:47 4.14415 -74.74180 27925 ft 421 kts 289°
2026-05-08 19:47 4.15458 -74.76862 27443 ft 418 kts 289°
2026-05-08 19:47 4.16509 -74.79565 26974 ft 415 kts 289°
2026-05-08 19:48 4.17667 -74.82202 26490 ft 413 kts 297°
2026-05-08 19:48 4.19405 -74.84492 26011 ft 413 kts 316°
2026-05-08 19:48 4.21752 -74.86127 25513 ft 411 kts 334°
2026-05-08 19:48 4.24482 -74.86951 25002 ft 409 kts 353°
2026-05-08 19:49 4.27313 -74.86898 24518 ft 406 kts 11°
2026-05-08 19:49 4.29979 -74.86012 24035 ft 403 kts 26°
2026-05-08 19:49 4.32579 -74.84989 23531 ft 401 kts 15°
2026-05-08 19:49 4.35277 -74.84461 23059 ft 399 kts
2026-05-08 19:50 4.38020 -74.84085 22577 ft 396 kts
2026-05-08 19:50 4.40753 -74.83730 22118 ft 393 kts
2026-05-08 19:50 4.43437 -74.83381 21793 ft 385 kts
2026-05-08 19:50 4.46057 -74.83045 21360 ft 382 kts
2026-05-08 19:51 4.48686 -74.82698 20909 ft 380 kts
2026-05-08 19:51 4.51301 -74.82351 20475 ft 377 kts
2026-05-08 19:51 4.53892 -74.82008 20051 ft 374 kts
2026-05-08 19:51 4.56466 -74.81668 19623 ft 371 kts
2026-05-08 19:52 4.59021 -74.81330 19207 ft 368 kts
2026-05-08 19:52 4.61538 -74.80998 18981 ft 359 kts
2026-05-08 19:52 4.63969 -74.80678 18848 ft 346 kts
2026-05-08 19:52 4.66336 -74.80365 18541 ft 340 kts
2026-05-08 19:53 4.68669 -74.80057 18160 ft 337 kts
2026-05-08 19:53 4.71000 -74.79750 17609 ft 339 kts
2026-05-08 19:53 4.73316 -74.79437 17147 ft 339 kts
2026-05-08 19:53 4.75558 -74.78765 16741 ft 335 kts 28°
2026-05-08 19:54 4.77296 -74.77277 16441 ft 327 kts 54°
2026-05-08 19:54 4.78342 -74.75275 16230 ft 325 kts 68°
2026-05-08 19:54 4.79162 -74.73159 16020 ft 325 kts 70°
2026-05-08 19:54 4.79956 -74.71042 15801 ft 323 kts 69°
2026-05-08 19:55 4.80756 -74.68943 15584 ft 322 kts 69°
2026-05-08 19:55 4.81556 -74.66846 15370 ft 321 kts 69°
2026-05-08 19:55 4.82353 -74.64764 15157 ft 319 kts 69°
2026-05-08 19:55 4.83148 -74.62693 14943 ft 318 kts 69°
2026-05-08 19:56 4.83940 -74.60630 14730 ft 317 kts 69°
2026-05-08 19:56 4.84727 -74.58575 14512 ft 314 kts 69°
2026-05-08 19:56 4.85499 -74.56559 14311 ft 313 kts 69°
2026-05-08 19:56 4.86283 -74.54526 14099 ft 311 kts 69°
2026-05-08 19:57 4.87066 -74.52509 13888 ft 310 kts 69°
2026-05-08 19:57 4.87838 -74.50491 13684 ft 311 kts 69°
2026-05-08 19:57 4.88620 -74.48464 13471 ft 310 kts 68°
2026-05-08 19:57 4.89393 -74.46462 13290 ft 305 kts 69°
2026-05-08 19:58 4.90141 -74.44516 13123 ft 293 kts 68°
2026-05-08 19:58 4.90661 -74.42578 12922 ft 284 kts 84°
2026-05-08 19:58 4.90422 -74.40650 12730 ft 280 kts 110°
2026-05-08 19:58 4.89482 -74.38973 12607 ft 271 kts 123°
2026-05-08 19:59 4.88766 -74.37963 12518 ft 265 kts 124°
2026-05-08 19:59 4.87693 -74.36496 12371 ft 256 kts 125°
2026-05-08 19:59 4.86661 -74.35075 12168 ft 248 kts 124°
2026-05-08 19:59 4.85657 -74.33688 11927 ft 243 kts 124°
2026-05-08 20:00 4.84674 -74.32330 11753 ft 239 kts 124°
2026-05-08 20:00 4.83661 -74.31009 11568 ft 239 kts 128°
2026-05-08 20:00 4.82611 -74.29748 11256 ft 238 kts 128°
2026-05-08 20:00 4.81552 -74.28479 11001 ft 236 kts 128°
2026-05-08 20:01 4.80511 -74.27223 10802 ft 231 kts 128°
2026-05-08 20:01 4.79505 -74.26002 10658 ft 221 kts 128°
2026-05-08 20:01 4.78577 -74.24832 10601 ft 207 kts 125°
2026-05-08 20:01 4.77727 -74.23697 10548 ft 203 kts 124°
2026-05-08 20:02 4.76893 -74.22578 10556 ft 192 kts 124°
2026-05-08 20:02 4.76106 -74.21534 10349 ft 186 kts 125°
2026-05-08 20:02 4.75320 -74.20502 9995 ft 186 kts 124°
2026-05-08 20:02 4.74544 -74.19463 9586 ft 186 kts 124°
2026-05-08 20:03 4.73774 -74.18446 9285 ft 179 kts 125°
2026-05-08 20:03 4.73037 -74.17479 9006 ft 171 kts 125°
2026-05-08 20:03 4.72353 -74.16569 8792 ft 162 kts 124°
2026-05-08 20:03 4.71683 -74.15662 8523 ft 160 kts 125°
2026-05-08 20:04 4.71025 -74.14794 8374 ft 151 kts 126°
2026-05-08 20:04 4.70484 -74.14078 8373 ft 105 kts 127°
2026-05-08 20:04 4.70141 -74.13626 8373 ft 58 kts 127°
2026-05-08 20:04 4.69996 -74.13435 8374 ft 11 kts 127°
2026-05-08 20:05 4.69965 -74.13395 8376 ft 7 kts 129°
2026-05-08 20:05 4.69931 -74.13363 8376 ft 7 kts 142°
2026-05-08 20:05 4.69886 -74.13338 8376 ft 8 kts 156°
2026-05-08 20:05 4.69827 -74.13321 8376 ft 9 kts 168°
2026-05-08 20:06 4.69760 -74.13310 8376 ft 10 kts 171°
2026-05-08 20:06 4.69686 -74.13299 8376 ft 11 kts 171°
2026-05-08 20:06 4.69608 -74.13289 8376 ft 11 kts 181°
2026-05-08 20:06 4.69590 -74.13330 8376 ft 7 kts 287°
2026-05-08 20:07 4.69616 -74.13374 8374 ft 8 kts 305°
2026-05-08 20:07 4.69650 -74.13420 8376 ft 9 kts 307°
2026-05-08 20:07 4.69687 -74.13470 8376 ft 9 kts 306°
2026-05-08 20:07 4.69728 -74.13525 8376 ft 10 kts 307°
2026-05-08 20:08 4.69773 -74.13584 8375 ft 11 kts 307°
2026-05-08 20:08 4.69778 -74.13620 8374 ft 4 kts 248°
2026-05-08 20:08 4.69762 -74.13662 8374 ft 7 kts 263°
2026-05-08 20:08 4.69777 -74.13711 8376 ft 7 kts 287°
2026-05-08 20:09 4.69761 -74.13741 8376 ft 5 kts 234°
2026-05-08 20:09 4.69734 -74.13769 8376 ft 5 kts 219°
2026-05-08 20:09 4.69725 -74.13775 8374 ft 0 kts 218°